Location: Arnolds Mill
(42.3415°N, 73.5951°W)
Time: 11:34:18
(UTC+00:00)

BlueWalker 3 - Pass Details

Date: 21 June 2024
Orbit: 480 x 492 km, 53.2° (Epoch: 13 July)

Event Time Altitude Azimuth Distance (km) Brightness Sun altitude
Rises 06:33:15 0° 310° (NW) 2,540 5.7 -20.5°
Reaches altitude 10° 06:35:35 10° 321° (NW) 1,658 4.9 -20.3°
Maximum altitude 06:38:58 32° 26° (NNE) 849 3.7 -20.1°
Drops below altitude 10° 06:42:21 10° 91° (E) 1,655 4.9 -19.8°
Sets 06:44:40 0° 102° (ESE) 2,533 5.7 -19.6°
